STARLINK-1416 (45692 NORAD) Tracking and Keplerian Element Data

This shows tracking and keplerian element data for the satellite.

Feedback or suggestion? Click here.




ElementValue
Catalog45692
NameSTARLINK-1416
Epoch Orbit1078
Epoch Day219.25001157
Epoch Year2020
RAAN221.6741
Inclination52.9982
Eccentricity0.0001416
Argument of Perigee84.9419
Mean Anonmoly76.6404
Mean Motion15.28226747
Decay Rate-0.01027995
L11 45692U 20035AM 20219.25001157 -.01027995 00000-0 -40099-1 0 9999
L22 45692 52.9982 221.6741 0001416 84.9419 76.6404 15.28226747 10780

Live tracking and technical data element details for STARLINK-1416 (NORAD 45692). STARLINK-1416 can be tracked NOW for your location showing map with azimuth and elevation plus other details from your city location.

Track the satellite on the map from your city or location and see movement details for azimuth, elevation, latitude, longitude, range, height, and movement on the map or in text.







IsCatalogInMostPopularTable: catalog: 45692, numindb: 9
Update: records affected: 1



GetName: 45692 STARLINK-1416

Hit Count: updated at: Sat, 08 Aug 2020 00:39:07 GMT